This is the latest recevied weather packets stored in our database for station/object KA9CBS. If no packets are shown the sender has not sent any weather packets the latest 10 day(s).
| Time | Temp. | Humidity | Pressure | Rain* | Wind** | Luminosity | Snow |
|---|---|---|---|---|---|---|---|
| 1778109217 | 15° C | 57% | 1016.6 hPa | 0 mm | - | 48 W/m² | - |
| 1778108914 | 15° C | 56% | 1016.3 hPa | 0 mm | - | 59 W/m² | - |
| 1778108611 | 15° C | 54% | 1016.6 hPa | 0 mm | - | 70 W/m² | - |
| 1778108306 | 15° C | 58% | 1016.5 hPa | 0 mm | - | 119 W/m² | - |
| 1778108004 | 14.44° C | 60% | 1016.6 hPa | 0 mm | - | 58 W/m² | - |
| 1778107695 | 15° C | 58% | 1016.7 hPa | 0 mm | - | 55 W/m² | - |
| 1778107392 | 15° C | 59% | 1016.6 hPa | 0 mm | - | 78 W/m² | - |
| 1778107089 | 15° C | 59% | 1016.6 hPa | 0 mm | - | 74 W/m² | - |
| 1778106783 | 15° C | 58% | 1016.7 hPa | 0 mm | - | 114 W/m² | - |
| 1778106481 | 14.44° C | 60% | 1016.7 hPa | 0 mm | - | 116 W/m² | - |
| 1778106176 | 14.44° C | 61% | 1016.7 hPa | 0 mm | - | 101 W/m² | - |
| 1778105874 | 15° C | 61% | 1016.9 hPa | 0 mm | - | 109 W/m² | - |
| 1778105572 | 15.56° C | 58% | 1016.8 hPa | 0 mm | - | 139 W/m² | - |
| 1778105269 | 15.56° C | 59% | 1016.6 hPa | 0 mm | - | 95 W/m² | - |
| 1778104964 | 15° C | 61% | 1016.9 hPa | 0 mm | - | 87 W/m² | - |
| 1778104661 | 15.56° C | 57% | 1016.6 hPa | 0 mm | - | 104 W/m² | - |
| 1778104357 | 15.56° C | 61% | 1016.8 hPa | 0 mm | - | 125 W/m² | - |
| 1778104053 | 15° C | 60% | 1016.7 hPa | 0 mm | - | 189 W/m² | - |
| 1778103751 | 15° C | 63% | 1016.8 hPa | 0 mm | - | 186 W/m² | - |
| 1778103449 | 15° C | 63% | 1016.8 hPa | 0 mm | - | 228 W/m² | - |
| 1778103145 | 15° C | 60% | 1016.8 hPa | 0 mm | - | 206 W/m² | - |
| 1778102843 | 15° C | 59% | 1016.9 hPa | 0 mm | - | 208 W/m² | - |
| 1778102538 | 15° C | 61% | 1016.8 hPa | 0 mm | - | 220 W/m² | - |
| 1778102234 | 15° C | 57% | 1016.7 hPa | 0 mm | - | 243 W/m² | - |
| 1778101930 | 15.56° C | 58% | 1016.9 hPa | 0 mm | - | 226 W/m² | - |
* Rain latest hour (hover to see other rain measurements)
** Current wind speed in m/s (hover to see current wind gust speed)